Pierre, SD

5:18 AM CST on December 11, 2019 (GMT -0600)
Pierre Regional

Weather History for KPIR - November, 2019

Change the Weather History Date:

Tuesday, November 12, 2019

  Actual Average Record
Temperature  
Mean Temperature 17 °F 36 °F  
Max Temperature 36 °F 46 °F 77 °F (2016)
Min Temperature -2 °F 25 °F -4 °F (1940)
Degree Days  
Heating Degree Days 48    
Month to date heating degree days 426  
Since 1 July heating degree days 1236  
Cooling Degree Days 0    
Month to date cooling degree days 0  
Year to date cooling degree days 651  
Moisture  
Dew Point 14 °F    
Average Humidity 77    
Maximum Humidity 91    
Minimum Humidity 63    
Precipitation  
Precipitation T in 0.03 in 0.59 in (1993)
Month to date precipitation 0.44 0.35  
Year to date precipitation 29.31 19.05  
Snow  
Snow 0.00 in 0.20 in 4.00 in (1993)
Month to date snowfall 5.7 1.5  
Since 1 July snowfall 11.0 2.5  
Snow Depth 1.00 in    
Sea Level Pressure  
Sea Level Pressure 30.11 in    
Wind  
Wind Speed 8 mph (South)    
Max Wind Speed 17 mph    
Max Gust Speed 22 mph    
Visibility 10 miles    
Events Rain    
T = Trace of Precipitation, MM = Missing Value Source: NWS Daily Summary

Daily Weather History Graph

Daily Weather History Graph

Search for Another Location

Airport or City:

Astronomy

Nov. 12, 2019 Rise Set
Actual Time 7:32 AM CST 5:17 PM CST
Civil Twilight 7:01 AM CST 5:48 PM CST
Nautical Twilight 6:26 AM CST 6:23 PM CST
Astronomical Twilight 5:52 AM CST 6:57 PM CST
Moon 5:46 PM CST (11/12) 7:24 AM CST (11/12)
Length of Visible Light 10h 46m
Length of Day
9h 44m
Full, 100% of the Moon is Illuminated
Nov 12
Full
Nov 19
Last Quarter
Nov 26
New
Dec 4
First Quarter
Dec 11
Full

Hourly Weather History & Observations

Time (CST) Temp. Windchill Dew Point Humidity Pressure Visibility Wind Dir Wind Speed Gust Speed Precip Events Conditions
12:53 AM 3.9 °F -10.4 °F -2.9 °F 73% 30.59 in 10.0 mi SSE 9.2 mph - N/A   Clear
1:53 AM 3.0 °F -10.5 °F -0.9 °F 84% 30.56 in 10.0 mi SSE 8.1 mph - N/A   Clear
2:53 AM 5.0 °F -10.8 °F 1.0 °F 84% 30.51 in 10.0 mi SE 11.5 mph - N/A   Clear
3:53 AM 5.0 °F -10.8 °F 1.0 °F 84% 30.44 in 10.0 mi SSE 11.5 mph - N/A   Clear
4:53 AM 3.9 °F -10.4 °F -0.0 °F 84% 30.38 in 10.0 mi SE 9.2 mph - N/A   Clear
5:53 AM 3.9 °F -11.3 °F 1.0 °F 88% 30.35 in 10.0 mi SE 10.4 mph - N/A   Clear
6:53 AM 6.1 °F -10.2 °F 1.9 °F 83% 30.29 in 10.0 mi SE 12.7 mph - N/A   Clear
7:53 AM 7.0 °F -8.3 °F 3.0 °F 84% 30.24 in 10.0 mi SE 11.5 mph - N/A   Clear
8:53 AM 10.0 °F -6.5 °F 5.0 °F 80% 30.19 in 10.0 mi SSE 15.0 mph - N/A   Clear
9:53 AM 14.0 °F -1.4 °F 8.1 °F 77% 30.14 in 10.0 mi SSE 15.0 mph - N/A   Clear
10:53 AM 19.9 °F 7.3 °F 12.9 °F 74% 30.09 in 10.0 mi SSE 12.7 mph - N/A   Clear
11:53 AM 25.0 °F 15.5 °F 17.1 °F 72% 30.06 in 10.0 mi SSE 9.2 mph - N/A   Clear
12:53 PM 28.9 °F 22.8 °F 19.9 °F 69% 30.03 in 10.0 mi SW 5.8 mph - N/A   Clear
1:53 PM 30.9 °F 23.5 °F 19.0 °F 61% 29.99 in 10.0 mi WSW 8.1 mph - N/A   Clear
2:53 PM 30.0 °F 24.1 °F 21.0 °F 69% 29.96 in 10.0 mi WSW 5.8 mph - N/A   Clear
3:53 PM 32.0 °F 27.5 °F 23.0 °F 69% 29.93 in 10.0 mi South 4.6 mph - N/A   Clear
4:53 PM 30.9 °F - 23.0 °F 72% 29.92 in 10.0 mi Calm Calm - N/A   Clear
5:53 PM 28.0 °F - 21.9 °F 78% 29.92 in 10.0 mi Calm Calm - N/A   Clear
6:53 PM 28.9 °F - 23.0 °F 78% 29.89 in 10.0 mi Calm Calm - N/A   Clear
7:53 PM 28.0 °F - 23.0 °F 81% 29.87 in 10.0 mi Calm Calm - N/A   Scattered Clouds
8:53 PM 30.9 °F - 26.1 °F 82% 29.86 in 10.0 mi Calm Calm - N/A   Clear
9:53 PM 36.0 °F 29.0 °F 28.0 °F 73% 29.86 in 10.0 mi West 9.2 mph - N/A   Partly Cloudy
10:53 PM 36.0 °F 29.6 °F 28.9 °F 76% 29.85 in 10.0 mi West 8.1 mph - 0.00 in Rain Light Rain
11:53 PM 36.0 °F 29.6 °F 28.9 °F 76% 29.83 in 10.0 mi WSW 8.1 mph - 0.00 in   Overcast